Regional Weather Roundup
Issued by NWS Newport/Morehead, NC

Current Version | Previous Version | Text Only | Print | Product List | Glossary Off
Versions: 1 2 3 4 5 6 7 8 9 10 11 12 13 14 15 16 17 18 19 20 21 22 23 24 25 26 27 28 29 30 31 32 33 34 35 36 37 38 39 40 41 42 43 44 45 46 47 48 49 50
000 ASUS42 KMHX 021425 RWRMHX WEATHER ROUNDUP FOR EASTERN NORTH CAROLINA NATIONAL WEATHER SERVICE NEWPORT/MOREHEAD CITY NC 1000 AM EDT TUE JUN 02 2015 NOTE: "FAIR" INDICATES FEW OR NO CLOUDS BELOW 12,000 FEET WITH NO SIGNIFICANT WEATHER AND/OR OBSTRUCTIONS TO VISIBILITY NCZ015>017-031-032-045>047-102-103-021500- NORTH COAST CITY SKY/WX TMP DP RH WIND PRES REMARKS EDENTON PTSUNNY 80 70 72 SW8 30.02S ELIZABETH CITY MOSUNNY 80 71 74 S10 30.02S KITTY HAWK SUNNY 81 69 67 S5 30.02S MANTEO MOSUNNY 80 69 69 S8 30.03S $$ NCZ045>047-081-094-103-104-021500- CENTRAL COAST CITY SKY/WX TMP DP RH WIND PRES REMARKS FRISCO MOSUNNY 79 69 71 VRB7 30.05S SWANQUARTER N/A 84 N/A N/A S8 30.00S $$ NCZ095-097-098-100-101-021500- SOUTHERN COAST CITY SKY/WX TMP DP RH WIND PRES REMARKS BEAUFORT PTSUNNY 79 72 79 S12 30.04S CEDAR ISLAND N/A 81 N/A N/A SW2G9 30.09S JACKSONVILLE MOSUNNY 81 68 64 SW7 30.02F PINEY ISLAND MOSUNNY N/A N/A N/A S7 30.03F WILMINGTON PTSUNNY 80 70 71 VRB6 30.04R $$ NCZ011>013-027>030-043-044-078>080-089-090>093-098-021500- COASTAL PLAIN CITY SKY/WX TMP DP RH WIND PRES REMARKS AHOSKIE PTSUNNY 75 68 78 CALM 30.02F CLINTON PTSUNNY 79 69 71 SW5 30.04R ELIZABETHTOWN PTSUNNY 80 68 67 SW8 30.04S GOLDSBORO MOSUNNY 80 70 70 CALM 30.00S GREENVILLE MOSUNNY 81 70 69 SW7 30.03S HAVELOCK MOSUNNY 79 68 69 S8 30.04S KENANSVILLE MOSUNNY 80 67 64 SW5 30.04S KINSTON SUNNY 81 70 69 S5 30.03S NEW BERN MOSUNNY 81 68 64 SW8 30.04S RICHLANDS MOSUNNY 84 66 54 SW9 30.03S ROCKY MOUNT MOSUNNY 80 70 71 S8 30.02R WASHINGTON MOSUNNY 79 70 74 S5 30.02F WHITEVILLE PTSUNNY 81 68 66 W7 30.04R $$ AMZ130-135-150-152-154-156-158-170-250-252-270-ANZ085-086-088-633-658-670-021500- MARINE OBSERVATIONS STATION/POSITION TIME TEMP WIND PRES WAVE SWELL AIR SEA DIR/SP/G HT/PER HT/PER (UTC) (F) (DEG/KT/KT) (MB) (FT/S) (FT/S) CHESAPEAKE LIGHT 1400 70 200/ 14/ 15 1016.7 64 E VA BEACH 1350 73 71 190/ 6/ 8 1016.5 3/ 8 3/ 8 DUCK 1400 78 54 210/ 9/ 13 1015.7 2 E DUCK 1311 63 N/A 2/ 9 OREGON INLET 1400 77 78 190/ 9/ 11 1017.0 13E OREGON INLT 1400 76 N/A 3/ 9 HATTERAS CG 1400 79 78 200/ 6/ 9 1017.0 DIAMOND BUOY 1350 78 81 250/ 6/ 8 1017.4 3/ 8 2/ 8 CAPE LOOKOUT 1400 79 180/ 8/ 11 1017.0 BEAUFORT LAB 1400 78 77 210/ 8/ 10 1016.4 30 SE NEW RVR IN 1308 77 77 200/ 6/ 8 1017.6 27 SE WRIGHTSVLE 1400 77 180/ 6/ 6 N/A 5 SE WRIGHTSVLE 1308 76 78 240/ 6/ 8 1017.1 225 S CAPE HAT 1350 76 77 210/ 2/ 4 1018.4 3/ 8 3/ 8 41 SE CHARLESTON 1350 76 80 170/ 10/ 12 1017.0 3/ 8 3/ 8 $$

USA.gov is the U.S. government's official web portal to all federal, state and local government web resources and services.